Simultaneous Nadir Overpasses (SNOs) Predictions

Prediction of SNOs between AQUA and METOP-A Satellite Orbit:

Table of predicted SNOs for the next 14.0 days since TLE Epoch: 10/26/2019
Index Date (AQUA) Time (AQUA) Lat,Lon (AQUA) SZA (AQUA ) Date (METOP-A) Time (METOP-A) Lat,Lon (METOP-A) SZA (METOP-A ) Distance(km) Time Diff (sec)
1 10/26/2019 15:56:01 -75.54, 111.04 91.98 10/26/2019 15:55:19 -75.56, 111.04 91.95 1.93 42
2 10/26/2019 16:45:29 75.61, -81.51 88.11 10/26/2019 16:45:58 75.61, -81.47 88.11 1.37 29
3 10/29/2019 11:30:16 -75.56, 177.41 91.01 10/29/2019 11:29:43 -75.56, 177.39 91.01 0.95 33
4 10/29/2019 12:19:44 75.63, -15.15 89.08 10/29/2019 12:20:22 75.61, -15.12 89.06 2.80 38
5 11/01/2019 07:04:31 -75.59,-116.24 90.06 11/01/2019 07:04:06 -75.60,-116.12 90.05 3.44 25
6 11/01/2019 07:53:58 75.62, 51.34 89.98 11/01/2019 07:54:46 75.60, 51.22 89.97 3.47 48
7 11/04/2019 01:49:06 75.01, 144.17 90.21 11/04/2019 01:48:01 74.94, 141.00 90.23 91.60 65
8 11/04/2019 02:38:44 -75.58, -49.77 89.18 11/04/2019 02:38:29 -75.60, -49.77 89.16 1.43 15
9 11/04/2019 03:28:12 75.66, 117.66 90.92 11/04/2019 03:29:08 75.64, 117.71 90.90 2.08 56
10 11/06/2019 21:23:28 75.41,-150.47 91.49 11/06/2019 21:22:17 75.32,-151.57 91.43 32.54 71
11 11/06/2019 22:12:58 -75.58, 16.68 88.33 11/06/2019 22:12:53 -75.59, 16.56 88.31 3.51 5




NCC Satellite Simultaneous Nadir Overpasses (SNOs) Prediction Service
